Powrót do katalogu

COSMOS 2251 DEB

AktywnyLEO
NORAD 38055·DEBRIS·🇷🇺 Russia

Wystrzelony Jun 16, 1993 z Plesetsk Cosmodrome

Loading…

Następne Przeloty (najbliższe 24 godziny)

TLE

ŚwieżeSource: Space-Track

Epoka: Sep 14, 2026, 14:53 UTC

1 38055U 93036BRM 26257.62022561  .00003765  00000-0  48906-3 0  9999
2 38055  74.0098  23.5907 0062223  82.1757 291.4790 14.79731173647600

Śledź COSMOS 2251 DEB w czasie rzeczywistym z AllMySat

Download on the App Store